This demonstration page uses our WeatherBlox Daily Observations layout. Learn more.

38.80484, -77.04692

Hourly Observations for April 2, 2019

Temp ( °F °C ) Dew Point ( °F °C ) Humidity (%) Winds ( mph kmh ) Pressure ( in mb ) Visibility ( mi km ) Precip ( " mm )
12:52 am 00:52 Cloudy 42 5.6 24 -4.4 49 49 SSE 8 13 30.37 1029 10 16.0934 0 0
1:52 am 01:52 Cloudy 40 4.4 26 -3.3 58 58 SSW 7 11 30.37 1028 10 16.0934 0 0
2:52 am 02:52 Cloudy 41 5 26 -3.3 55 55 S 6 9 30.36 1028 10 16.0934 0 0
3:52 am 03:52 Cloudy 40 4.4 26 -3.3 58 58 SE 6 9 30.35 1028 10 16.0934 0 0
4:52 am 04:52 Mostly Cloudy 40 4.4 28 -2.2 63 63 S 7 11 30.37 1028 10 16.0934 0 0
5:52 am 05:52 Cloudy 39 3.9 27 -2.8 62 62 SE 3 6 30.36 1028 10 16.0934 0 0
6:52 am 06:52 Partly Cloudy 39 3.9 26 -3.3 60 60 SSE 3 6 30.36 1028 10 16.0934 0 0
7:52 am 07:52 Partly Cloudy 40 4.4 29 -1.7 65 65 NE 5 7 30.35 1028 10 16.0934 0 0
8:52 am 08:52 Mostly Cloudy 44 6.7 29 -1.7 55 55 Calm 30.35 1028 10 16.0934 0 0
9:52 am 09:52 Cloudy 47 8.3 23 -5 39 39 S 5 7 30.35 1028 10 16.0934 0 0
10:52 am 10:52 Cloudy 49 9.4 22 -5.6 35 35 NE 5 7 30.32 1027 10 16.0934 0 0
11:52 am 11:52 Cloudy 49 9.4 23 -5 36 36 SE 13 20 30.3 1026 10 16.0934 0 0
12:52 pm 12:52 Cloudy 49 9.4 23 -5 36 36 ENE 7 11 30.26 1025 10 16.0934 0 0
1:52 pm 13:52 Cloudy 49 9.4 23 -5 36 36 E 9 15 30.25 1024 10 16.0934 0 0
2:52 pm 14:52 Cloudy 48 8.9 27 -2.8 44 44 ENE 8 13 30.22 1023 10 16.0934 0 0
3:52 pm 15:52 Cloudy 49 9.4 30 -1.1 48 48 NE 7 11 30.18 1022 10 16.0934 0 0.0254
4:52 pm 16:52 Cloudy with Light Rain 47 8.3 35 1.7 63 63 NE 8 13 30.16 1021 10 16.0934 0 0.0254
5:52 pm 17:52 Cloudy 47 8.3 35 1.7 63 63 N 9 15 30.15 1021 10 16.0934 0 0.0254
6:52 pm 18:52 Cloudy with Light Rain 46 7.8 37 2.8 71 71 NNE 12 19 30.13 1020 10 16.0934 0.03 0.762
7:52 pm 19:52 Cloudy with Light Rain 46 7.8 38 3.3 73 73 NNE 9 15 30.12 1020 10 16.0934 0.01 0.254
8:52 pm 20:52 Cloudy 45 7.2 39 3.9 80 80 NNE 6 9 30.11 1020 10 16.0934 0 0.0254
9:52 pm 21:52 Mostly Cloudy 45 7.2 39 3.9 80 80 NNE 7 11 30.09 1019 10 16.0934 0 0
10:33 pm 22:33 Cloudy 45 7.2 39 3.9 80 80 N 10 17 30.1 1019 10 16.0934 0 0
10:52 pm 22:52 Mostly Cloudy 45 7.2 39 3.9 80 80 NNW 8 13 30.1 1019 10 16.0934 0 0
11:06 pm 23:06 Mostly Cloudy 44 6.7 39 3.9 83 83 NNW 9 15 30.1 1019 10 16.0934 0 0
11:10 pm 23:10 Mostly Cloudy 45 7.2 39 3.9 80 80 NNW 12 19 30.1 1019 10 16.0934 0 0
11:21 pm 23:21 Mostly Cloudy 45 7.2 39 3.9 80 80 NW 10 17 30.1 1019 10 16.0934 0 0
11:52 pm 23:52 Cloudy 45 7.2 39 3.9 80 80 NNW 10 17 30.09 1019 10 16.0934 0 0

Powered by AerisWeather